Holdrege, NE

5:20 AM CDT on June 27, 2017 (GMT -0500)
Brewster

Weather History for KHDE - October, 2013

Change the Weather History Date:

Friday, October 11, 2013

  Actual Average Record
Temperature  
Mean Temperature 58 °F -  
Max Temperature 67 °F 68 °F 94 °F (2015)
Min Temperature 50 °F 40 °F 23 °F (1987)
Degree Days  
Heating Degree Days 7    
Growing Degree Days 8 (Base 50)    
Moisture  
Dew Point 46 °F    
Average Humidity 66    
Maximum Humidity 93    
Minimum Humidity 42    
Precipitation  
Precipitation 0.21 in - - ()
Sea Level Pressure  
Sea Level Pressure 29.73 in    
Wind  
Wind Speed 16 mph (WSW)    
Max Wind Speed 26 mph    
Max Gust Speed 34 mph    
Visibility 10 miles    
Events Rain , Thunderstorm    
Averages and records for this station are not official NWS values.
T = Trace of Precipitation, MM = Missing Value Source: NWS Daily Summary

Daily Weather History Graph

Daily Weather History Graph

Search for Another Location

Airport or City:

Trip Planner

Search our weather history database for the weather conditions in past years. The results will help you decide how hot, cold, wet, or windy it might be!

Date:

Astronomy

Oct. 11, 2013 Rise Set
Actual Time 7:44 AM CDT 7:03 PM CDT
Civil Twilight 7:16 AM CDT 7:30 PM CDT
Nautical Twilight 6:45 AM CDT 8:01 PM CDT
Astronomical Twilight 6:13 AM CDT 8:33 PM CDT
Moon 2:28 PM CDT (10/11) No Moon Set
Length of Visible Light 12h 13m
Length of Day
11h 18m
Waxing Crescent, 47% of the Moon is Illuminated
Oct 11
Waxing Crescent
Oct 11
First Quarter
Oct 18
Full
Oct 26
Last Quarter
Nov 3
New

Hourly Weather History & Observations

Time (CDT) Temp. Dew Point Humidity Pressure Visibility Wind Dir Wind Speed Gust Speed Precip Events Conditions
12:15 AM 57.4 °F 55.4 °F 93% 29.76 in 4.0 mi South 10.4 mph - 0.11 in Rain , Thunderstorm Heavy Thunderstorms and Rain
12:35 AM 57.2 °F 55.0 °F 92% 29.73 in 10.0 mi SSW 17.3 mph 21.9 mph 0.14 in Rain Rain
12:55 AM 57.4 °F 54.7 °F 91% 29.69 in 7.0 mi South 13.8 mph 20.7 mph 0.19 in Rain Rain
1:15 AM 59.4 °F 52.9 °F 79% 29.63 in 10.0 mi SE 26.5 mph 31.1 mph 0.02 in Rain Light Rain
1:55 AM 59.0 °F 52.9 °F 80% 29.61 in 10.0 mi SSE 17.3 mph 24.2 mph 0.02 in   Overcast
2:15 AM 59.0 °F 52.7 °F 80% 29.61 in 10.0 mi SSE 19.6 mph 25.3 mph N/A   Mostly Cloudy
2:35 AM 58.5 °F 53.2 °F 83% 29.62 in 10.0 mi SSE 19.6 mph 26.5 mph N/A   Scattered Clouds
2:55 AM 57.9 °F 53.8 °F 86% 29.62 in 10.0 mi SSE 21.9 mph 31.1 mph N/A   Scattered Clouds
3:15 AM 58.1 °F 54.1 °F 87% 29.61 in 10.0 mi SSE 21.9 mph 27.6 mph N/A   Scattered Clouds
3:35 AM 57.9 °F 54.3 °F 88% 29.60 in 10.0 mi South 17.3 mph 28.8 mph N/A   Scattered Clouds
3:55 AM 57.9 °F 54.5 °F 88% 29.60 in 10.0 mi South 18.4 mph 24.2 mph N/A   Clear
4:15 AM 57.7 °F 54.3 °F 88% 29.59 in 10.0 mi South 15.0 mph 20.7 mph N/A   Clear
4:35 AM 57.7 °F 54.9 °F 90% 29.59 in 10.0 mi South 15.0 mph 20.7 mph N/A   Mostly Cloudy
4:55 AM 58.1 °F 55.4 °F 91% 29.58 in 10.0 mi South 18.4 mph 23.0 mph N/A   Mostly Cloudy
5:15 AM 58.1 °F 55.4 °F 91% 29.58 in 10.0 mi South 17.3 mph 21.9 mph N/A   Scattered Clouds
5:35 AM 58.1 °F 55.6 °F 91% 29.58 in 10.0 mi South 16.1 mph 21.9 mph N/A   Scattered Clouds
5:55 AM 58.3 °F 55.6 °F 91% 29.58 in 10.0 mi South 15.0 mph 21.9 mph N/A   Mostly Cloudy
6:15 AM 57.7 °F 55.0 °F 91% 29.59 in 10.0 mi South 15.0 mph 23.0 mph N/A   Scattered Clouds
6:35 AM 57.4 °F 54.9 °F 91% 29.59 in 10.0 mi South 13.8 mph 19.6 mph N/A   Clear
6:55 AM 56.8 °F 54.5 °F 92% 29.59 in 10.0 mi South 13.8 mph - N/A   Clear
7:15 AM 56.3 °F 54.0 °F 92% 29.59 in 10.0 mi South 15.0 mph 20.7 mph N/A   Clear
7:35 AM 55.8 °F 53.2 °F 91% 29.59 in 10.0 mi South 16.1 mph 21.9 mph N/A   Clear
7:55 AM 55.4 °F 51.8 °F 88% 29.60 in 10.0 mi South 16.1 mph 21.9 mph N/A   Clear
8:15 AM 55.4 °F 48.6 °F 78% 29.60 in 10.0 mi SSW 17.3 mph 25.3 mph N/A   Clear
8:35 AM 55.0 °F 45.1 °F 69% 29.61 in 10.0 mi SSW 16.1 mph 20.7 mph N/A   Clear
8:55 AM 55.4 °F 42.6 °F 62% 29.62 in 10.0 mi South 17.3 mph 24.2 mph N/A   Clear
9:15 AM 55.4 °F 41.7 °F 60% 29.62 in 10.0 mi SSW 16.1 mph 25.3 mph N/A   Clear
9:35 AM 55.8 °F 42.1 °F 60% 29.62 in 10.0 mi SSW 16.1 mph 20.7 mph N/A   Clear
9:55 AM 56.1 °F 42.8 °F 61% 29.64 in 10.0 mi SW 16.1 mph 23.0 mph N/A   Clear
10:15 AM 57.9 °F 41.2 °F 54% 29.65 in 10.0 mi SW 16.1 mph 24.2 mph N/A   Clear
10:35 AM 59.2 °F 40.6 °F 50% 29.64 in 10.0 mi WSW 12.7 mph 24.2 mph N/A   Clear
10:55 AM 60.6 °F 41.7 °F 50% 29.64 in 10.0 mi WSW 15.0 mph 19.6 mph N/A   Clear
11:15 AM 61.7 °F 42.1 °F 49% 29.64 in 10.0 mi West 21.9 mph 28.8 mph N/A   Clear
11:35 AM 63.3 °F 43.2 °F 48% 29.65 in 10.0 mi West 19.6 mph 29.9 mph N/A   Clear
11:55 AM 64.2 °F 43.7 °F 47% 29.66 in 10.0 mi West 24.2 mph 31.1 mph N/A   Clear
12:15 PM 64.8 °F 43.3 °F 46% 29.67 in 10.0 mi West 21.9 mph 32.2 mph N/A   Clear
12:35 PM 65.7 °F 43.0 °F 44% 29.67 in 10.0 mi West 24.2 mph 28.8 mph N/A   Clear
12:55 PM 66.2 °F 42.8 °F 43% 29.68 in 10.0 mi West 20.7 mph 29.9 mph N/A   Clear
1:15 PM 66.6 °F 43.2 °F 43% 29.68 in 10.0 mi West 17.3 mph 31.1 mph N/A   Clear
1:35 PM 66.9 °F 43.0 °F 42% 29.68 in 10.0 mi West 23.0 mph 32.2 mph N/A   Clear
1:55 PM 66.4 °F 43.5 °F 44% 29.69 in 10.0 mi West 23.0 mph 28.8 mph N/A   Clear
2:15 PM 65.5 °F 42.6 °F 43% 29.70 in 10.0 mi West 17.3 mph 29.9 mph N/A   Clear
2:35 PM 65.5 °F 42.3 °F 43% 29.70 in 10.0 mi West 19.6 mph 29.9 mph N/A   Clear
2:55 PM 65.1 °F 41.9 °F 43% 29.71 in 10.0 mi WSW 21.9 mph 29.9 mph N/A   Clear
3:15 PM 64.8 °F 42.1 °F 44% 29.72 in 10.0 mi West 25.3 mph 34.5 mph N/A   Clear
3:35 PM 64.4 °F 41.0 °F 42% 29.74 in 10.0 mi West 20.7 mph 31.1 mph N/A   Clear
3:55 PM 64.0 °F 40.8 °F 43% 29.75 in 10.0 mi WNW 16.1 mph 28.8 mph N/A   Clear
4:15 PM 62.1 °F 40.6 °F 45% 29.76 in 10.0 mi WNW 13.8 mph 29.9 mph N/A   Clear
4:35 PM 63.5 °F 41.4 °F 44% 29.77 in 10.0 mi WNW 18.4 mph 24.2 mph N/A   Clear
4:55 PM 63.1 °F 40.8 °F 44% 29.79 in 10.0 mi NW 19.6 mph 25.3 mph N/A   Clear
5:15 PM 62.8 °F 41.2 °F 45% 29.81 in 10.0 mi NW 17.3 mph 26.5 mph N/A   Clear
5:35 PM 61.0 °F 41.2 °F 48% 29.82 in 10.0 mi NW 17.3 mph 23.0 mph N/A   Clear
5:55 PM 60.3 °F 41.0 °F 49% 29.84 in 10.0 mi NW 13.8 mph 21.9 mph N/A   Clear
6:15 PM 59.0 °F 41.0 °F 51% 29.85 in 10.0 mi NNW 13.8 mph 17.3 mph N/A   Clear
6:35 PM 57.7 °F 40.8 °F 53% 29.86 in 10.0 mi NNW 8.1 mph - N/A   Clear
6:55 PM 57.2 °F 40.8 °F 54% 29.87 in 10.0 mi NNW 6.9 mph - N/A   Clear
7:15 PM 56.5 °F 41.4 °F 57% 29.88 in 10.0 mi NNW 4.6 mph - N/A   Clear
7:35 PM 55.4 °F 42.1 °F 61% 29.89 in 10.0 mi NNW 4.6 mph - N/A   Clear
7:55 PM 55.4 °F 41.9 °F 60% 29.90 in 10.0 mi Calm Calm - N/A   Scattered Clouds
8:15 PM 54.3 °F 43.0 °F 66% 29.91 in 10.0 mi Calm Calm - N/A   Overcast
8:35 PM 54.7 °F 42.4 °F 63% 29.92 in 10.0 mi Calm Calm - N/A   Overcast
8:55 PM 55.0 °F 44.4 °F 67% 29.93 in 10.0 mi Calm Calm - N/A   Overcast
9:15 PM 54.1 °F 44.2 °F 69% 29.93 in 10.0 mi SSW 3.5 mph - N/A   Mostly Cloudy
9:35 PM 53.1 °F 45.0 °F 74% 29.94 in 10.0 mi WSW 3.5 mph - N/A   Scattered Clouds
9:55 PM 52.5 °F 45.0 °F 75% 29.95 in 10.0 mi West 5.8 mph - N/A   Scattered Clouds
10:15 PM 53.2 °F 43.3 °F 69% 29.96 in 10.0 mi West 6.9 mph - N/A   Clear
10:35 PM 53.8 °F 42.1 °F 65% 29.96 in 10.0 mi West 9.2 mph - N/A   Clear
10:55 PM 52.7 °F 41.4 °F 65% 29.97 in 10.0 mi West 9.2 mph - N/A   Clear
11:15 PM 50.2 °F 40.6 °F 70% 29.97 in 10.0 mi West 6.9 mph - N/A   Clear
11:35 PM 51.3 °F 40.5 °F 67% 29.98 in 10.0 mi WNW 9.2 mph - N/A   Clear
11:55 PM 51.6 °F 39.7 °F 64% 29.99 in 10.0 mi WNW 10.4 mph - N/A   Clear